Location: Thompson
(55.7500°N, 97.8670°W)
Time: 04:17:09
(UTC-05:00)

Daily predictions for brighter satellites

Satellite Brightness Start Highest point End
(mag) Time Altitude Azimuth Time Altitude Azimuth Time Altitude Azimuth
Cosmos 1943 Rocket 3.1 00:08:44 38° NE 00:08:44 38° NE 00:12:17 10° NE
CZ-4B R/B 4.4 00:09:06 13° NNE 00:09:06 13° NNE 00:09:58 10° NNE
CZ-2C R/B 3.9 00:08:47 39° NE 00:08:47 39° NE 00:12:33 10° N
ATLAS 5 CENTAUR R/B 2.4 00:03:08 10° WSW 00:08:04 60° NNW 00:13:36 10° NE
Cosmos 407 Rocket 3.9 00:03:21 10° NNW 00:07:58 58° WNW 00:07:58 58° WNW
Cosmos 1891 Rocket 4.3 00:13:34 84° NNE 00:13:34 84° NNE 00:19:27 10° NNE
Cosmos 1464 Rocket 3.9 00:14:49 75° WSW 00:15:10 78° WNW 00:21:30 10° N
Cosmos 2219 3.4 00:10:19 10° NW 00:15:21 67° WNW 00:15:21 67° WNW
H-2A R/B 4.3 00:21:04 17° W 00:21:04 17° W 00:23:21 10° NW
Cosmos 2221 4.5 00:22:26 24° WNW 00:22:59 25° WNW 00:26:38 10° N
ATLAS 3B R/B 4.0 00:26:03 28° E 00:26:03 28° E 00:29:51 10° NE
USA 215 3.1 00:20:58 10° ENE 00:27:33 88° SSE 00:34:07 10° WSW
Cosmos 2034 Rocket 3.9 00:30:48 79° W 00:30:50 79° WNW 00:37:08 10° N
ASTEX 1 4.2 00:35:43 48° NNE 00:35:43 48° NNE 00:39:24 10° N
H-2A R/B 4.4 00:45:20 14° W 00:46:27 15° W 00:49:24 10° NW
Cosmos 1140 Rocket 4.3 00:42:14 10° NNW 00:46:06 47° NW 00:46:06 47° NW
Cosmos 1655 Rocket 4.1 00:42:07 10° N 00:48:09 71° NE 00:48:09 71° NE
CZ-2C R/B 3.8 00:46:04 10° NNE 00:49:13 33° NE 00:49:13 33° NE
Cosmos 1634 Rocket 4.2 00:53:37 63° NE 00:53:37 63° NE 00:59:05 10° NNE
CZ-3B DEB 4.4 00:49:14 10° W 00:49:15 10° W 00:49:15 10° W
Cosmos 2297 Rocket 2.6 00:52:08 10° NNW 00:56:54 61° N 00:56:54 61° N
Lacrosse 5 3.8 00:52:51 10° W 00:54:34 21° WNW 00:54:34 21° WNW
Cosmos 1092 Rocket 4.3 00:52:23 10° NNW 00:58:06 56° W 00:58:06 56° W
Cosmos 2082 4.1 00:57:41 10° NW 01:02:13 59° NNW 01:02:13 59° NNW
Cosmos 2026 Rocket 4.2 01:06:20 10° NNW 01:12:13 68° WNW 01:12:13 68° WNW
Cosmos 2369 Rocket 3.3 01:14:18 34° WNW 01:15:36 39° NW 01:20:52 10° NNE
Terra 4.5 01:18:14 10° W 01:18:14 10° W 01:18:45 10° WNW
Cosmos 2227 Rocket 3.0 01:17:48 10° NW 01:21:51 46° NW 01:21:51 46° NW
CZ-4C R/B 2.6 01:29:52 66° NNW 01:29:52 66° NNW 01:36:19 10° NE
Lacrosse 4 Rocket 4.1 01:35:09 10° NNW 01:37:59 18° NNE 01:40:46 10° ENE
CZ-4B R/B 4.5 01:42:43 16° NNW 01:42:43 16° NNW 01:43:31 10° NNW
Cosmos 1607 4.2 01:44:44 61° NE 01:44:44 61° NE 01:49:50 10° NE
Cosmos 1980 Rocket 4.4 01:48:30 14° E 01:48:30 14° E 01:50:33 10° ENE
Cosmos 1943 Rocket 3.2 01:50:12 38° NW 01:50:47 39° NW 01:56:06 10° NNE
Cosmos 2266 Rocket 4.1 01:47:29 10° NNW 01:52:44 68° NNW 01:52:44 68° NNW
Cosmos 2263 Rocket 3.7 01:48:38 10° NNW 01:53:38 32° NE 01:56:25 21° E
ATLAS 5 CENTAUR R/B 3.4 01:48:45 10° WNW 01:53:40 38° N 01:59:05 10° ENE
Cosmos 1656 Rocket 4.2 01:55:17 54° NNW 01:55:17 54° NNW 02:00:06 10° NNE
COSMOS 2455 3.7 01:59:07 40° ENE 01:59:07 40° ENE 02:03:16 10° NE
Cosmos 2279 Rocket 4.2 02:10:43 62° NW 02:10:43 62° NW 02:16:34 10° N
USA 215 3.2 02:04:02 10° E 02:10:37 82° N 02:17:11 10° W
ATLAS 3B R/B 2.7 02:13:16 79° W 02:13:43 83° NW 02:20:50 10° NE
GEOS 3 Rocket 4.1 02:09:42 10° NE 02:14:09 57° N 02:14:09 57° N
H-2A R/B 4.3 02:12:20 10° NNE 02:14:40 31° NNE 02:14:40 31° NNE
CZ-2C R/B 3.7 02:26:34 10° N 02:30:45 37° NW 02:30:45 37° NW
Meteor 2-10 Rocket 4.0 02:34:12 63° NE 02:34:12 63° NE 02:39:04 10° NNE
SL-16 R/B 3.5 02:33:24 30° ESE 02:35:52 43° ENE 02:41:42 10° N
Cosmos 1656 4.2 02:37:20 52° ENE 02:37:20 52° ENE 02:41:51 10° NE
Cosmos 2297 Rocket 4.1 02:36:44 10° NW 02:38:42 19° WNW 02:38:42 19° WNW
NOSS 3-2 (A) 3.6 02:44:16 65° ESE 02:44:16 65° ESE 02:50:40 10° NE
Cosmos 839 Rocket 4.1 02:45:53 75° SE 02:45:59 75° SE 02:52:22 10° NE
Meteor 1-11 Rocket 4.3 02:41:32 10° N 02:47:12 51° ENE 02:47:50 49° E
Cosmos 1745 Rocket 4.0 02:45:39 10° N 02:51:48 71° ENE 02:52:11 69° ESE
Okean 1-7 4.3 02:57:21 39° NNE 02:57:21 39° NNE 03:00:08 10° NNE
Cosmos 2322 Rocket 4.0 02:58:57 20° ESE 02:59:32 20° E 03:03:32 10° NE
USA 238 DEB 3.8 03:01:52 61° W 03:03:04 73° NNW 03:10:09 10° NE
USA 238 3.8 03:01:58 61° W 03:03:10 74° NNW 03:10:15 10° NE
SL-16 R/B 3.9 03:04:10 21° ESE 03:04:54 22° ESE 03:09:06 10° NE
Cosmos 1331 Rocket 4.2 03:07:15 68° N 03:07:15 68° N 03:11:57 10° NNE
Resurs 1-4 Rocket 3.8 03:02:40 10° NE 03:06:58 24° E 03:08:11 22° ESE
CZ-2D R/B 3.8 03:04:43 10° NE 03:09:17 26° E 03:10:47 23° ESE
Iridium 4 Rocket 4.4 03:05:37 10° NNW 03:09:53 42° NW 03:09:53 42° NW
Cosmos 1844 Rocket 4.4 03:06:02 10° NNW 03:10:59 31° NE 03:15:54 10° E
Cosmos 1697 Rocket 2.7 03:11:50 73° E 03:11:50 73° E 03:17:12 10° NE
Cosmos 44 Rocket 4.0 03:13:36 47° ENE 03:13:36 47° ENE 03:17:18 10° NE
Meteor 1-26 Rocket 4.4 03:17:52 59° NW 03:17:52 59° NW 03:23:02 10° N
Lacrosse 4 Rocket 2.7 03:13:46 10° NNW 03:17:01 38° NNE 03:17:01 38° NNE
UNK 4.3 03:18:17 57° NE 03:18:17 57° NE 03:22:38 10° N
CZ-4C R/B 3.5 03:15:00 18° WNW 03:19:14 44° N 03:25:53 10° ENE
NPP 3.8 03:16:36 10° NNE 03:21:58 61° ESE 03:22:08 61° ESE
Cosmos 2278 Rocket 4.4 03:21:15 10° NNW 03:25:55 25° NNE 03:30:32 10° E
Cosmos 1980 Rocket 2.2 03:30:15 67° SE 03:30:24 68° ESE 03:36:04 10° NE
Cosmos 2360 Rocket 4.5 03:27:51 11° SE 03:30:33 15° E 03:33:36 10° ENE
CBERS-1 4.1 03:27:01 10° NNE 03:32:10 66° ESE 03:32:15 66° ESE
NOSS 3-2 (C) 3.4 03:31:51 70° SW 03:32:42 89° SE 03:39:46 10° NE
ADEOS Rocket 4.1 03:29:58 10° NNE 03:35:00 32° E 03:37:11 24° SE
Cosmos 724 4.4 03:34:21 66° W 03:35:09 77° NW 03:41:26 10° NE
Cosmos 2369 4.1 03:34:49 50° WNW 03:35:19 51° NW 03:40:54 10° NNE
Cosmos 1674 Rocket 4.2 03:36:11 53° ENE 03:36:11 53° ENE 03:40:12 10° NNE
Cosmos 1943 Rocket 4.4 03:32:08 10° WNW 03:36:08 19° NNW 03:40:10 10° NNE
Cosmos 1386 Rocket 4.4 03:29:57 10° NNW 03:36:15 79° W 03:36:57 69° SSW
Cosmos 2263 Rocket 2.0 03:32:34 10° NW 03:38:04 81° W 03:38:04 81° W
ATLAS 5 CENTAUR R/B 3.1 03:34:02 10° NW 03:39:23 49° NNE 03:45:19 10° E
Cosmos 2278 4.2 03:39:44 45° WNW 03:40:25 47° NW 03:45:57 10° NNE
Meteor 2-11 Rocket 4.5 03:40:02 58° SSE 03:41:14 75° E 03:47:24 10° NNE
COSMOS 2455 3.3 03:42:15 46° WNW 03:43:28 54° NW 03:49:24 10° NE
Cosmos 968 Rocket 3.5 03:38:50 10° NNW 03:43:26 71° NW 03:43:26 71° NW
AQUA 3.8 03:39:29 10° NNE 03:44:13 74° E 03:44:13 74° E
CENTAUR R/B 2.9 03:43:40 47° SSE 03:44:50 53° SE 03:51:45 10° NE
Cosmos 1782 3.9 03:47:36 40° NNW 03:47:36 40° NNW 03:50:27 10° N
Cosmos 1553 Rocket 4.0 03:48:09 62° SW 03:49:11 74° WNW 03:55:38 10° N
USA 81 4.3 03:48:30 56° SE 03:49:22 66° E 03:54:37 10° NNE
ADEOS 4.1 03:47:24 10° NNE 03:52:32 52° E 03:53:46 42° SE
Cosmos 1992 Rocket 4.2 03:52:45 56° SE 03:53:21 60° ESE 03:58:32 10° NNE
Meteor 1-5 Rocket 4.0 03:48:06 10° NNW 03:53:27 82° ENE 03:54:31 58° SSE
USA 215 3.1 03:47:12 10° ESE 03:53:47 73° SSW 04:00:21 10° WNW
Cosmos 1536 3.8 03:51:03 10° NNW 03:53:52 43° NNW 03:53:52 43° NNW
Cosmos 1867 4.5 03:50:39 10° NW 03:55:59 48° NNE 04:01:16 10° ESE
Cosmos 1461 3.4 03:57:05 52° ENE 03:57:05 52° ENE 04:00:14 10° NE
ERBS 4.0 03:58:57 32° ENE 03:58:57 32° ENE 04:01:00 10° E
Meteor 2-6 Rocket 4.1 03:57:46 66° SW 03:58:28 76° WNW 04:04:21 10° NNE
S3M 3.9 03:58:50 58° WSW 03:59:45 66° WNW 04:05:52 10° N
UNKNOWN OBJECT B 4.3 03:59:27 10° NNE 04:02:43 28° E 04:03:13 27° ESE
IRS-1C 4.0 03:57:30 10° NNE 04:02:54 88° ESE 04:03:45 65° SSW
Spot 4 Rocket 4.1 03:59:22 10° NNE 04:04:33 70° ESE 04:05:37 54° SSE
Cosmos 1302 Rocket 4.3 04:04:26 51° WNW 04:04:52 52° NW 04:10:01 10° NNE
ATLAS 3B R/B 3.5 04:00:29 21° WNW 04:05:14 47° NNW 04:11:56 10° ENE
Cosmos 2292 Rocket 4.4 03:58:17 10° NNW 04:05:32 67° W 04:06:36 56° SW
Cosmos 2315 Rocket 4.2 04:06:00 36° SSE 04:08:37 69° E 04:14:49 10° NNE
ARIANE 5 R/B 2.7 04:07:50 10° NNE 04:12:58 68° ESE 04:14:21 47° SSE
Cosmos 1709 Rocket 3.9 04:09:20 10° NNW 04:15:32 67° W 04:17:18 47° SSW
Cosmos 2360 4.1 04:15:42 56° SW 04:16:57 81° NW 04:22:44 10° NE
SL-16 R/B 2.7 04:18:29 48° SW 04:19:28 52° W 04:25:33 10° NNW
Cosmos 1844 4.5 04:14:06 10° NNW 04:19:48 53° NE 04:25:25 10° ESE
USA 161 4.1 04:22:41 16° N 04:22:41 16° N 04:23:23 10° NNW
Cosmos 1500 4.2 04:18:54 10° N 04:22:38 46° ENE 04:24:41 23° SE
Okean 1 Rocket 4.0 04:19:10 10° NNW 04:22:09 35° NW 04:22:09 35° NW
IRS-P3 4.5 04:20:11 10° N 04:25:20 49° WNW 04:26:15 44° W
ERS-1 4.4 04:21:29 10° NNE 04:26:38 83° WNW 04:27:50 54° SSW
Cosmos 1544 Rocket 3.8 04:22:42 10° N 04:27:10 69° ENE 04:29:32 27° SSE
Cosmos 2074 Rocket 4.0 04:23:04 10° N 04:29:23 80° ENE 04:35:38 10° SSE
Meteor 1-11 Rocket 4.4 04:25:18 10° NNW 04:30:19 35° W 04:30:19 35° W
Cosmos 883 Rocket 4.5 04:32:41 41° SW 04:34:52 67° WNW 04:41:07 10° N
NOSS 3-2 (A) 4.1 04:31:38 29° W 04:34:59 56° NNW 04:42:04 10° ENE
Cosmos 1606 4.2 04:35:40 25° NW 04:35:40 25° NW 04:38:20 10° N
CBERS 1 LM4 rocket 4.3 04:31:11 10° NNE 04:35:56 70° WNW 04:36:56 53° SW
Cosmos 44 3.4 04:35:33 47° W 04:36:38 60° NW 04:41:13 10° NE
Okean 3 3.3 04:37:25 65° SW 04:37:55 74° WNW 04:42:11 10° N
IRS-1D 3.3 04:33:13 10° NNE 04:38:11 78° WNW 04:39:37 47° SSW
Cosmos 1975 3.1 04:36:24 10° N 04:40:30 69° ENE 04:42:59 22° SSE
Cosmos 2322 Rocket 2.1 04:40:45 41° SSW 04:42:51 86° ESE 04:48:30 10° NE
Cosmos 1777 Rocket 4.1 04:39:26 10° NW 04:44:38 55° WSW 04:46:58 31° S
Resurs 1-4 Rocket 2.1 04:42:02 10° NNE 04:47:19 71° WNW 04:49:17 39° SW
Meteor 1-27 Rocket 4.1 04:45:37 38° WSW 04:47:30 52° WNW 04:53:14 10° N
SL-16 R/B 2.1 04:46:02 38° SSW 04:48:19 90° SE 04:54:03 10° NE
SL-8 R/B 4.4 04:48:52 34° S 04:48:52 34° S 04:53:08 10° ESE
Okean O Rocket 3.4 04:45:08 10° NNE 04:49:04 30° E 04:53:00 10° SSE
CZ-2D R/B 2.2 04:44:22 10° NNE 04:49:52 70° WNW 04:52:07 36° SW
Cosmos 44 Rocket 4.0 04:52:18 30° W 04:54:14 44° NNW 04:58:53 10° NE
Cosmos 2344 4.5 04:44:30 10° NW 04:54:24 64° SW 05:07:55 10° SSE
Cosmos 1844 Rocket 2.6 04:49:55 10° NW 04:55:33 86° WSW 05:01:09 10° SSE
Cosmos 1697 Rocket 3.8 04:53:34 24° W 04:56:02 34° NW 05:01:12 10° NNE
Cosmos 1378 Rocket 3.7 04:55:36 46° WSW 04:56:19 51° WNW 05:00:35 10° N
CZ-2C R/B 4.4 04:51:54 10° SE 04:56:21 56° ENE 05:00:46 10° N
Lacrosse 4 Rocket 3.5 04:52:32 10° NW 04:53:17 15° NW 04:53:17 15° NW
COSMOS 2428 4.4 04:52:48 10° SSE 04:57:38 30° ESE 05:02:29 10° NE
Genesis I 3.3 04:57:15 49° SSW 04:58:10 70° SE 05:02:07 10° NE
Cosmos 1346 Rocket 3.1 04:57:56 43° W 04:58:12 44° WNW 05:01:57 10° N
Cosmos 1455 Rocket 2.9 04:56:28 10° NNW 05:00:53 73° W 05:03:47 21° S
MOZ.5/SAFIR/RUBIN 5/SL-8 4.1 05:02:44 37° SW 05:03:48 44° W 05:08:16 10° NNW
Cosmos 2184 Rocket 3.9 04:59:54 10° NNW 05:06:02 65° W 05:12:12 10° S
CZ-4C R/B 3.4 05:02:36 10° NW 05:08:57 55° NNE 05:16:12 10° E
ADEOS II 3.2 05:06:01 10° NNE 05:11:02 42° E 05:16:01 10° SSE
Cosmos 2278 Rocket 2.6 05:05:22 10° NNW 05:11:04 66° NE 05:16:43 10° SE
Cosmos 2298 Rocket 4.4 05:06:39 10° NNW 05:12:01 67° ENE 05:17:19 10° SE
Cosmos 2360 Rocket 2.4 05:09:38 20° SSW 05:13:32 67° ESE 05:19:10 10° NE
Cosmos 1975 Rocket 3.2 05:13:09 35° SW 05:14:43 55° WNW 05:19:01 10° N
Cosmos 1980 Rocket 3.1 05:12:01 23° W 05:14:50 37° NW 05:20:07 10° NNE
Cosmos 1812 2.6 05:15:11 34° SSW 05:16:45 70° WNW 05:20:37 10° N
ADEOS Rocket 2.9 05:15:23 10° N 05:20:57 55° WNW 05:24:09 24° SW
Cosmos 2263 Rocket 3.7 05:17:32 10° WNW 05:19:42 17° WNW 05:19:42 17° WNW
Cosmos 1340 2.8 05:19:10 19° S 05:21:45 74° ESE 05:25:33 10° NNE
NOSS 3-2 (C) 4.3 05:19:16 17° W 05:24:18 50° NNW 05:31:23 10° ENE
ATLAS 5 CENTAUR R/B 2.2 05:18:47 10° NW 05:24:30 75° SW 05:30:48 10° SE
Cosmos 1666 3.2 05:21:06 10° N 05:24:58 63° ENE 05:28:49 10° SSE
CZ-2D R/B 3.7 05:21:13 10° N 05:25:38 58° WNW 05:28:04 25° SW
COSMOS 2455 4.3 05:25:23 10° WNW 05:30:39 30° N 05:35:53 10° NE
ADEOS 4.4 05:27:14 10° N 05:31:57 35° WNW 05:34:35 22° WSW
Orbus 7S? 3.8 05:28:20 22° WSW 05:32:26 82° SSE 05:35:50 10° ENE
Cosmos 1743 2.6 05:28:35 10° NNW 05:32:29 73° W 05:36:20 10° S
COBE Rocket 4.3 05:27:51 10° N 05:32:46 49° WNW 05:36:03 21° SW
ERBS 2.3 05:32:17 23° WNW 05:34:21 86° SSW 05:37:51 10° ESE
Cosmos 1536 Rocket 3.6 05:30:12 11° S 05:34:33 88° E 05:39:04 10° NNE
CENTAUR R/B 2.9 05:30:50 21° WSW 05:35:29 65° NNW 05:42:58 10° NE
Cosmos 1461 4.0 05:33:32 19° WNW 05:35:44 32° NNW 05:39:22 10° NE
UNKNOWN OBJECT B 3.4 05:33:55 10° N 05:37:19 34° WNW 05:38:42 25° WSW
USA 215 3.8 05:31:37 10° SSE 05:37:29 34° SW 05:43:23 10° WNW
PSLV R/B 4.1 05:35:09 10° NNE 05:39:27 59° E 05:43:46 10° S
Cosmos 1867 3.6 05:34:24 10° NW 05:39:49 61° SW 05:45:10 10° SSE
Cosmos 2154 Rocket 3.9 05:33:53 10° NNW 05:40:02 66° W 05:46:10 10° S
CZ-4B R/B 2.7 05:36:43 10° NNE 05:40:20 75° ESE 05:44:00 10° S
DNEPR-1 R/B 4.1 05:40:17 20° WSW 05:43:57 63° NW 05:48:35 10° NE
MTI 4.0 05:41:05 10° S 05:44:18 49° W 05:47:33 10° NNW
Cosmos 2333 Rocket 3.9 05:40:17 10° SSE 05:45:17 32° ESE 05:50:19 10° NE
ARIANE 5 R/B 3.7 05:47:29 10° N 05:51:45 27° NW 05:54:44 16° WSW
Cosmos 2322 3.7 05:46:43 14° SW 05:51:45 83° NW 05:57:32 10° NE
Okean 1-7 Rocket 4.3 05:50:44 10° S 05:55:09 56° E 05:59:32 10° NNE
EO 1 Del DPAF 3.7 05:52:13 10° SSW 05:55:51 39° W 05:59:32 10° NNW
ATLAS 3B R/B 3.6 05:50:20 10° WNW 05:57:15 48° NNE 06:03:47 10° E
Cosmos 1606 Rocket 3.9 05:53:30 10° N 05:58:00 71° ENE 06:02:28 10° SSE
Cosmos 1500 4.5 05:55:06 10° NW 05:58:05 22° W 05:59:37 17° WSW
Cosmos 990 Rocket 3.9 05:53:12 10° NNW 05:58:27 84° WSW 06:03:37 10° SSE
Cosmos 2150 Rocket 4.0 05:54:17 10° NNW 05:59:31 68° WSW 06:04:49 10° SSE
SL-8 Rocket 4.0 05:53:33 10° NNW 05:59:50 89° ENE 06:06:03 10° S
Meteor 1-18 Rocket 4.5 05:54:55 12° SW 05:59:59 50° WNW 06:05:30 10° N
Cosmos 1844 4.1 05:58:29 10° NW 06:03:54 42° WSW 06:09:13 10° S
Iridium 2 3.9 06:00:23 10° N 06:04:14 74° E 06:08:03 10° SSE
SL-16 R/B 4.2 06:03:34 11° W 06:04:37 12° WNW 06:06:43 10° WNW
Thor Agena Rocket 3.5 05:59:34 10° SSE 06:04:38 87° ENE 06:09:44 10° NNW
Cosmos 1898 Rocket 3.6 06:00:18 10° NW 06:05:22 50° WSW 06:10:21 10° S
Nadezhda 1 Rocket 4.1 06:02:26 10° SSW 06:08:23 54° WNW 06:14:22 10° N
MOS 1 Rocket 3.7 06:03:47 10° N 06:08:25 44° WNW 06:12:45 10° SW
Cosmos 2181 Rocket 4.2 06:03:29 10° S 06:09:44 83° E 06:16:08 10° NNE
CZ-4B DEB 4.2 06:05:06 10° NNE 06:10:42 81° WNW 06:16:16 10° SSW
Cosmos 1570 Rocket 4.0 06:05:31 10° SSW 06:10:45 82° WNW 06:16:02 10° NNE
Okean 1 4.1 06:07:40 13° SW 06:10:57 34° WNW 06:14:44 10° N
Cosmos 2333 4.4 06:05:21 10° SSW 06:11:01 75° ESE 06:16:46 10° NE
CZ-4B R/B 3.3 06:05:26 10° NNE 06:11:08 81° WNW 06:16:44 10° SSW
Cosmos 1125 Rocket 4.3 06:08:32 10° NNW 06:13:46 58° NE 06:18:59 10° SE
Meteor 1-13 Rocket 4.2 06:09:29 10° SSW 06:15:03 77° WNW 06:20:46 10° NNE
ERS-2 2.8 06:11:21 10° NNE 06:15:04 60° ESE 06:18:44 10° S
Cosmos 1975 4.4 06:13:55 10° NW 06:16:31 17° W 06:18:44 11° WSW
IRS-1C Rocket 4.1 06:14:03 10° NNE 06:19:17 67° WNW 06:24:30 10° SSW
Cosmos 2341 Rocket 4.2 06:14:48 10° NNW 06:20:46 47° W 06:26:40 10° SSW
Cosmos 2228 3.5 06:18:12 10° N 06:22:31 66° ENE 06:26:50 10° SSE
IRAS Rocket 4.2 06:19:14 10° NNE 06:24:46 75° WNW 06:30:19 10° SSW
Cosmos 1238 Rocket 2.5 06:22:01 10° SSW 06:24:51 42° WNW 06:27:52 10° N
Okean O Rocket 2.0 06:21:23 10° N 06:25:37 45° WNW 06:29:53 10° SW
Resurs 1-4 Rocket 3.7 06:22:52 10° N 06:26:22 18° NW 06:29:52 10° W
Cosmos 2218 Rocket 4.0 06:20:35 10° NNW 06:26:59 74° W 06:33:19 10° S
Cosmos 405 3.5 06:23:50 10° N 06:27:22 65° ENE 06:30:54 10° SSE
Cosmos 2322 Rocket 3.3 06:22:38 10° W 06:27:35 31° NW 06:32:34 10° NNE
CZ-2D R/B 3.8 06:25:23 10° N 06:29:07 19° NW 06:32:51 10° W
Cosmos 1726 Rocket 3.6 06:28:33 10° NNW 06:33:00 68° W 06:37:25 10° S
Cosmos 2369 Rocket 3.8 06:27:59 10° NNW 06:33:08 36° NE 06:38:15 10° ESE
SL-16 R/B 3.3 06:28:11 10° W 06:33:10 30° NNW 06:38:10 10° NNE
Cosmos 1809 Rocket 4.5 06:27:41 10° NNW 06:33:56 82° W 06:40:06 10° S
Cosmos 1937 Rocket 3.9 06:29:25 10° NW 06:34:27 42° WSW 06:39:24 10° S
SWAS 4.4 06:30:42 10° NW 06:35:03 72° WSW 06:39:22 10° SSE
Genesis I 4.3 06:32:32 10° W 06:36:09 34° NNW 06:39:48 10° NE
COSMO-SKYMED 1 2.5 06:32:17 10° SSE 06:36:37 80° WSW 06:41:01 10° NNW
Cosmos 2237 4.4 06:31:44 10° SW 06:37:27 63° NW 06:43:10 10° NNE
Timation 1 Rocket 4.5 06:32:03 10° NW 06:37:55 55° WSW 06:43:44 10° SSE
Cosmos 1844 Rocket 3.9 06:34:46 10° NW 06:38:42 20° W 06:42:38 10° SW
Cosmos 1025 Rocket 3.0 06:34:52 10° SSW 06:39:16 75° WNW 06:43:42 10° N
Cosmos 2219 Rocket 2.4 06:33:49 10° SSW 06:39:25 80° ESE 06:45:03 10° NE
Okean-O 2.7 06:35:05 10° NNE 06:39:34 89° ESE 06:44:01 10° SSW
Cosmos 1437 3.0 06:36:47 10° S 06:40:03 74° ESE 06:43:20 10° NNE
COSMOS 2428 2.8 06:35:50 10° SW 06:41:31 70° NW 06:47:14 10° NNE
